Regional Weather Roundup
Issued by NWS

Home | Current Version | Previous Version | Graphics & Text | Print | Product List | Glossary On
Versions: 1 2 3 4 5 6 7 8 9 10 11 12 13 14 15 16 17 18 19 20 21 22 23 24 25 26 27 28 29 30 31 32 33 34 35 36 37 38 39 40 41 42 43 44 45 46 47 48 49 50
000
ASUS43 KBIS 281910
RWRND

NORTH DAKOTA REGIONAL WEATHER ROUNDUP
NATIONAL WEATHER SERVICE BISMARCK ND
200 PM CDT SUN AUG 28 2016

NOTE: "FAIR" INDICATES FEW OR NO CLOUDS BELOW 12,000 FEET WITH NO
SIGNIFICANT WEATHER AND/OR OBSTRUCTIONS TO VISIBILITY.


NDZ001>003-009>011-017-282000-
NORTHWEST NORTH DAKOTA

CITY           SKY/WX    TMP DP  RH WIND       PRES   REMARKS
WILLISTON      MOSUNNY   88  45  22 N13       29.90R
MINOT          SUNNY     91  59  33 SE15      29.85F HX  90
MINOT AFB      SUNNY     89  59  35 SE16      29.84F
$$

NDZ018>021-031>035-040>046-282000-
SOUTHWEST NORTH DAKOTA

CITY           SKY/WX    TMP DP  RH WIND       PRES   REMARKS
BISMARCK       SUNNY     82  65  56 SE6       29.90F
DICKINSON      SUNNY     93  31  11 W13G18    29.90F
GARRISON         N/A     85  64  49 S10       29.89S
HETTINGER ARPT SUNNY     92  42  17 S7        29.95S
$$

NDZ004>008-012>016-024-026-027-054-282000-
NORTHEAST NORTH DAKOTA

CITY           SKY/WX    TMP DP  RH WIND       PRES   REMARKS
GRAND FORKS    MOSUNNY   80  65  59 S17       29.96F
GRND FRKS AFB  SUNNY     78  65  64 SE17G24   29.96F
DEVILS LAKE    SUNNY     79  67  66 SE13      29.94S
$$

NDZ022-023-025-028>030-036>039-047>053-282000-
SOUTHEAST NORTH DAKOTA

CITY           SKY/WX    TMP DP  RH WIND       PRES   REMARKS
FARGO          SUNNY     83  66  56 S12G26    29.96F
JAMESTOWN      PTSUNNY   81  70  69 S14G23    29.92F
$$





USA.gov is the U.S. government's official web portal to all federal, state and local government web resources and services.